Location: Villingen
(48.0639°N, 8.4609°E)
Time: 21:37:54
(UTC+01:00)

ISS - Pass Details

Date: 14 February 2018
Orbit: 402 x 407 km, 51.6° (Epoch: 24 February)

Event Time Altitude Azimuth Distance (km) Brightness Sun altitude
Rises 18:24:02 0° 284° (WNW) 2,320 1.3 -6.9°
Reaches altitude 10° 18:26:42 10° 261° (W) 1,456 0.8 -7.3°
Maximum altitude 18:28:42 15° 223° (SW) 1,177 -0.6 -7.6°
Drops below altitude 10° 18:30:41 10° 185° (S) 1,451 -0.8 -7.9°
Sets 18:33:21 0° 162° (SSE) 2,306 -0.1 -8.4°
